Regional Weather Roundup
Issued by NWS

Home | Current Version | Previous Version | Text Only | Print | Product List | Glossary Off
Versions: 1 2 3 4 5 6 7 8 9 10 11 12 13 14 15 16 17 18 19 20 21 22 23 24 25 26 27 28 29 30 31 32 33 34 35 36 37 38 39 40 41 42 43 44 45 46 47 48 49 50

000
ASUS45 KTFX 041210
RWRMT
MONTANA REGIONAL WEATHER ROUNDUP
NATIONAL WEATHER SERVICE GREAT FALLS MT
600 AM MDT SAT JUL 04 2015

NOTE: "FAIR" INDICATES FEW OR NO CLOUDS BELOW 12000 FEET WITH NO
SIGNIFICANT WEATHER AND/OR OBSTRUCTIONS TO VISIBILITY.

MTZ001>007-043-041300-
WEST OF THE DIVIDE

CITY           SKY/WX    TMP DP  RH WIND       PRES   REMARKS
KALISPELL      SUNNY     52  47  83 CALM      29.83R
MISSOULA       CLEAR     61  47  59 E6        29.91R
BUTTE          CLEAR     50  37  61 SE6       30.06R
MULLAN PASS    CLEAR     66  34  30 VRB5      30.06S
DEER LODGE       N/A     52  43  71 CALM      30.03R
EUREKA           N/A     57  46  67 CALM      29.84R
HAMILTON         N/A     63  43  48 S9        29.93R
RONAN            N/A     55  50  83 CALM      29.90S
$$

MTZ008-052>055-041300-
SOUTHWEST MONTANA

CITY           SKY/WX    TMP DP  RH WIND       PRES   REMARKS
BOZEMAN        CLEAR     55  45  68 SE8       29.96R
DILLON         CLEAR     58  38  47 S10       30.01R
W YELLOWSTONE  CLEAR     39  37  93 CALM      30.13R
THREE FORKS      N/A     52  52 100 CALM      29.95S
TWIN BRIDGES     N/A     53  40  61 E3        30.00R
$$

MTZ009-010-012-014-046-048-049-054-041300-
EAST SLOPES AND CENTRAL MONTANA

CITY           SKY/WX    TMP DP  RH WIND       PRES   REMARKS
CUT BANK       CLEAR     65  45  48 NW24G30   29.86R
GREAT FALLS    CLEAR     64  42  44 SW13      29.84S
MALMSTROM AFB  CLEAR     64  45  50 SW13      29.83S
HELENA         CLEAR     61  43  51 N3        29.92R
$$

MTZ011-013-016-021-045-047-050-051-041300-
NORTH CENTRAL MONTANA

CITY           SKY/WX    TMP DP  RH WIND       PRES   REMARKS
HAVRE          CLEAR     57  48  72 SW10      29.74R
LEWISTOWN      CLEAR     59  50  72 SE5       29.87S
CHINOOK          N/A     59  52  77 SW6       29.73R
FORT BENTON      N/A     64  48  55 NW8       29.79R
$$

MTZ017>020-022>027-061-062-041300-
NORTHEAST MONTANA

CITY           SKY/WX    TMP DP  RH WIND       PRES   REMARKS
GLASGOW        CLEAR     64  55  72 E10       29.73S
JORDAN           N/A     57  50  77 W3        29.77R
SIDNEY         CLEAR     61  57  88 CALM      29.77S
WOLF POINT     CLEAR     62  58  86 CALM      29.74S FOG
PLENTYWOOD       N/A     64  63  94 E5        29.76S
POPLAR           N/A     61  61 100 CALM      29.75S
$$

MTZ028>42-056>058-041300-
SOUTHCENTRAL AND SOUTHEAST MONTANA

CITY           SKY/WX    TMP DP  RH WIND       PRES   REMARKS
BAKER          CLEAR     60  58  92 SE7       29.84S FOG
BILLINGS       PTCLDY    67  51  56 SW8       29.86S
LIVINGSTON     CLEAR     55  46  71 NW6       29.95R
MILES CITY     CLEAR     66  58  75 SE3       29.79S
EKALAKA          N/A     68  56  65 SE5       29.86R
FORSYTH          N/A     63  57  82 NE3       29.79R
LAUREL           N/A     60  48  64 SW2       29.87R
ROUNDUP          N/A     62  48  60 S8        29.78S
$$

REGIONAL REPORTS...DAKOTAS

CITY           SKY/WX    TMP DP  RH WIND       PRES   REMARKS
WILLISTON      CLEAR     65  61  87 S3        29.77F FOG
MINOT          PTCLDY    68  62  81 S5        29.79R HAZE
DICKINSON      CLEAR     63  59  87 S10       29.82S FOG
BEACH          FAIR      63  63 100 S8        29.83R
CROSBY         PTSUNNY   66  66 100 S8        29.77R FOG
BISMARCK       CLEAR     64  63  96 E5        29.85F FOG
GRAND FORKS    CLOUDY    61  59  93 S5        29.87S FOG
FARGO          SUNNY     67  61  81 S8        29.90R HAZE
BUFFALO SD       N/A     63  60  90 SE7       29.79F
RAPID CITY     PTCLDY    61  59  93 SE8       29.88S
$$

REGIONAL REPORTS...WYOMING/IDAHO/WASHINGTON

CITY           SKY/WX    TMP DP  RH WIND       PRES   REMARKS
GILLETTE       CLEAR     62  56  80 VRB3      29.91S
SHERIDAN       CLEAR     59  53  80 CALM      29.88S
BUFFALO WY     CLEAR     67  47  48 W7        29.95R
CODY           CLEAR     63  46  55 CALM      29.98R
YELLOWSTONE LA   N/A     43  39  86 CALM      30.22R
IDAHO FALLS    CLEAR     54  52  93 CALM      29.97R
SALMON         PTCLDY    54  45  71 CALM      29.98R
BOISE          PTCLDY    72  39  30 SE7       29.84R
SPOKANE        PTCLDY    67  40  37 S6        29.81R
$$

REGIONAL REPORTS...ALBERTA

CITY           SKY/WX    TMP DP  RH WIND       PRES   REMARKS
EDMONTON       PTCLDY    55  41  58 NW3       29.90R
CALGARY        MOCLDY    61  46  59 CALM      29.97R
LETHBRIDGE     PTCLDY    59  52  77 NW14      29.91R
MEDICINE HAT   CLEAR     66  57  72 N10       29.81R
WATERTON GATE    N/A     55  52  88 E6          N/A
CARDSTON         N/A     57  52  82 NW10        N/A
ONEFOUR          N/A     63  45  51 NW6         N/A
$$

REGIONAL REPORTS...SASKATCHEWAN

CITY           SKY/WX    TMP DP  RH WIND       PRES   REMARKS
SWIFT CURRENT  MOCLDY    63  57  82 NE17      29.73F
REGINA         MOCLDY    66  63  88 E7        29.73F FOG
SASKATOON      CLOUDY    64  57  77 W5        29.79R
CYPRESS HILLS    N/A     59  52  77 N7          N/A
ROCKGLEN         N/A     63  55  77 S10         N/A
$$


USA.gov is the U.S. government's official web portal to all federal, state and local government web resources and services.